Torna al catalogo

DELTA 1 DEB

LostLEO
NORAD 42576·DEBRIS·🇺🇸 United States

Lanciato Nov 6, 1973 da Vandenberg Space Force Base

Loading…

Prossimi Passaggi (prossime 24 ore)

TLE

ObsoletoSource: Space-Track

Epoca: May 22, 2026, 14:43 UTC

1 42576U 73086HQ  26142.61339867  .00000008  00000-0  22466-3 0  9997
2 42576 102.2085  19.9232 0301898   3.9827  24.2659 12.76490552582215

Traccia DELTA 1 DEB in tempo reale con AllMySat

Download on the App Store